Weather History for Norfolk, NE

Change the Weather History Date:

Friday, April 18, 2014

  Actual Average Record
Temperature  
Mean Temperature 51 °F 51 °F  
Max Temperature 70 °F 63 °F 93 °F (1994)
Min Temperature 32 °F 38 °F 19 °F (1953)
Degree Days  
Heating Degree Days 14 15  
Month to date heating degree days 347 323  
Since 1 July heating degree days 6641 6272  
Cooling Degree Days 0 0  
Month to date cooling degree days 0 0  
Year to date cooling degree days 0 0  
Growing Degree Days 2 (Base 50)    
Moisture  
Dew Point 34 °F    
Average Humidity 54    
Maximum Humidity 75    
Minimum Humidity 33    
Precipitation  
Precipitation 0.00 in 0.09 in 1.05 in (1925)
Month to date precipitation 1.46 1.47  
Year to date precipitation 2.39 4.59  
Snow  
Snow 0.00 in 0.10 in - ()
Month to date snowfall 4.5 1.9  
Since 1 July snowfall 19.9 29.8  
Snow Depth 0.00 in    
Sea Level Pressure  
Sea Level Pressure 30.12 in    
Wind  
Wind Speed 17 mph (SSE)    
Max Wind Speed 30 mph    
Max Gust Speed 40 mph    
Visibility 9 miles    
Events      
T = Trace of Precipitation, MM = Missing Value Source: NWS Daily Summary

Daily Weather History Graph

Daily Weather History Graph

Search for Another Location

Airport:

Trip Planner

Search our weather history database for the weather conditions in past years. The results will help you decide how hot, cold, wet, or windy it might be!

Date:

Astronomy

Apr. 18, 2014 Rise Set
Actual Time 6:44 AM CDT 8:14 PM CDT
Civil Twilight 6:15 AM CDT 8:43 PM CDT
Nautical Twilight 5:40 AM CDT 9:18 PM CDT
Astronomical Twilight 5:02 AM CDT 9:56 PM CDT
Moon No Moon Rise 9:05 AM CDT (4/18)
Length of Visible Light 14h 28m
Length of Day
13h 29m
Waning Gibbous, 87% of the Moon is Illuminated
Apr 18
Waning Gibbous
Apr 22
Last Quarter
Apr 29
New
May 6
First Quarter
May 14
Full

Hourly Weather History & Observations

Time (CDT) Temp. Windchill Dew Point Humidity Pressure Visibility Wind Dir Wind Speed Gust Speed Precip Events Conditions
12:56 AM 35.1 °F 29.3 °F 24.1 °F 64% 30.25 in 10.0 mi ESE 6.9 mph - N/A   Clear
1:56 AM 36.0 °F - 24.1 °F 62% 30.26 in 10.0 mi Calm Calm - N/A   Clear
2:56 AM 37.9 °F 31.5 °F 26.1 °F 62% 30.23 in 10.0 mi SSE 9.2 mph - N/A   Mostly Cloudy
3:56 AM 37.9 °F 30.9 °F 26.1 °F 62% 30.22 in 10.0 mi SSE 10.4 mph - N/A   Clear
4:56 AM 37.0 °F 29.3 °F 27.0 °F 67% 30.22 in 9.0 mi SSE 11.5 mph - N/A   Clear
5:56 AM 36.0 °F 29.6 °F 27.0 °F 70% 30.22 in 7.0 mi SSE 8.1 mph - N/A   Clear
6:56 AM 36.0 °F 31.1 °F 28.0 °F 73% 30.22 in 5.0 mi ESE 5.8 mph - N/A   Haze
7:56 AM 41.0 °F 34.7 °F 30.0 °F 65% 30.21 in 5.0 mi SSE 10.4 mph - N/A   Haze
8:56 AM 46.0 °F 40.6 °F 33.1 °F 61% 30.20 in 7.0 mi South 11.5 mph - N/A   Clear
9:56 AM 53.1 °F - 36.0 °F 52% 30.20 in 10.0 mi South 19.6 mph - N/A   Clear
10:56 AM 57.0 °F - 34.0 °F 42% 30.17 in 10.0 mi SSE 19.6 mph 28.8 mph N/A   Clear
11:56 AM 60.1 °F - 36.0 °F 41% 30.16 in 10.0 mi South 20.7 mph 32.2 mph N/A   Clear
12:56 PM 63.0 °F - 37.9 °F 40% 30.14 in 10.0 mi South 20.7 mph 31.1 mph N/A   Clear
1:56 PM 64.9 °F - 39.0 °F 39% 30.11 in 8.0 mi South 23.0 mph 36.8 mph N/A   Clear
2:56 PM 66.0 °F - 39.0 °F 37% 30.07 in 7.0 mi SSE 27.6 mph 35.7 mph N/A   Clear
3:56 PM 69.1 °F - 39.0 °F 33% 30.03 in 10.0 mi SSE 24.2 mph 38.0 mph N/A   Clear
4:56 PM 70.0 °F - 39.0 °F 32% 30.01 in 10.0 mi South 23.0 mph 38.0 mph N/A   Clear
5:56 PM 68.0 °F - 39.0 °F 35% 30.00 in 10.0 mi South 21.9 mph 35.7 mph N/A   Clear
6:56 PM 66.0 °F - 39.9 °F 38% 29.99 in 10.0 mi SSE 21.9 mph 32.2 mph N/A   Clear
7:56 PM 64.0 °F - 39.9 °F 41% 29.98 in 10.0 mi SSE 20.7 mph - N/A   Clear
8:56 PM 61.0 °F - 39.9 °F 46% 29.98 in 10.0 mi SSE 20.7 mph - N/A   Clear
9:56 PM 59.0 °F - 39.0 °F 48% 29.98 in 10.0 mi SSE 19.6 mph - N/A   Clear
10:56 PM 59.0 °F - 39.0 °F 48% 29.98 in 9.0 mi SSE 20.7 mph 29.9 mph N/A   Clear
11:56 PM 57.0 °F - 39.0 °F 51% 29.96 in 6.0 mi SSE 20.7 mph 28.8 mph N/A   Haze